Terminal Aerodrome Forecast
Issued by NWS New Orleans/Baton Rouge, LA

Home | Current Version | Previous Version | Text Only | Print | Product List | Glossary On
Versions: 1 2 3 4 5 6 7 8 9 10 11 12 13 14 15 16 17
000
FTUS44 KLIX 291147
TAFNEW
TAF
KNEW 291147Z 2912/3012 23016G21KT 4SM -TSRA FEW070CB BKN100 BKN110
     FM291600 22008KT P6SM -RA BKN110
     FM291800 VRB06KT P6SM BKN080=

USA.gov is the U.S. government's official web portal to all federal, state and local government web resources and services.